Flag for Canada Weather past 2 weeks in Chatham-Kent, Ontario, Canada

Now
33 °F

Chilly.


Feels Like: 33 °F
Forecast: 19 / 33 °F
Wind: 2 mph from West

Location: Erieau

Current Time: Mar 26, 2015 at 10:30:15 PM

Latest Report: Mar 26, 2015 at 10:00 PM


Visibility: N/A

Pressure: 29.90 "Hg

Humidity: 94%

Dew point: 32 °F

Location of Chatham-KentLocation

Historic Weather in Chatham-Kent — Graph

°F

Chatham-Kent temperature yesterday

Maximum temperature yesterday: 39 °F (at 4:00 PM)
Minimum temperature yesterday: 29 °F (at 3:00 AM)
Average temperature yesterday: 34 °F

Past Weeks' High & Low Weather Summary

 TemperatureHumidityPressure
High43 °F (Mar 18, 5:00 PM)100% (Mar 21, 2:00 PM)30.65 "Hg (Mar 21, 2:00 PM)
Low21 °F (Mar 22, 8:00 AM)33% (Mar 18, 5:00 PM)29.68 "Hg (Mar 17, 1:00 AM)
Average32 °F77%30.16 "Hg
* Reported Mar 11 9:00 PM — Mar 26 9:00 PM, Chatham-Kent, Weather by CustomWeather, © 2015

Note: Actual official high and low records may vary slightly from our data, if they occured in-between our weather recording intervals... More about our weather records

Advertising

Chatham-Kent weather history for previous 24 hours

 ConditionsComfort  
Time TempWeatherWind HumidityBarometerVisibility
9:00 PM
Thu, Mar 26
31 °FChilly.3 mph100%29.90 "HgN/A
8:00 PM33 °FChilly.5 mph96%29.88 "HgN/A
7:00 PM33 °FChilly.8 mph95%29.86 "HgN/A
6:00 PM33 °FChilly.7 mph95%29.86 "HgN/A
5:00 PM33 °FChilly.5 mph93%29.85 "HgN/A
4:00 PM33 °FChilly.5 mph94%29.83 "HgN/A
3:00 PM33 °FChilly.5 mph94%29.84 "HgN/A
2:00 PM34 °FChilly.5 mph91%29.85 "HgN/A
1:00 PM35 °FChilly.3 mph95%29.86 "HgN/A
12:00 PM34 °FChilly.5 mph97%29.87 "HgN/A
11:00 AM34 °FChilly.2 mph97%29.88 "HgN/A
10:00 AM31 °FChilly.No wind100%29.89 "HgN/A
9:00 AM32 °FChilly.No wind98%29.90 "HgN/A
8:00 AM32 °FChilly.2 mph98%29.92 "HgN/A
7:00 AM33 °FChilly.3 mph95%29.91 "HgN/A
6:00 AM34 °FChilly.3 mph92%29.92 "HgN/A
5:00 AM34 °FChilly.6 mph90%29.89 "HgN/A
4:00 AM37 °FChilly.1 mph89%29.96 "HgN/A
3:00 AM38 °FChilly.2 mph94%29.98 "HgN/A
2:00 AM34 °FChilly.5 mph97%29.98 "HgN/A
1:00 AM36 °FChilly.6 mph96%29.97 "HgN/A
12:00 AM35 °FChilly.8 mph96%29.99 "HgN/A
11:00 PM
Wed, Mar 25
35 °FChilly.8 mph94%29.98 "HgN/A
10:00 PM37 °FChilly.8 mph93%29.97 "HgN/A
Weather by CustomWeather, © 2015

See weather overviewHow to use our weather pages